Location: DARK SKY Beskydy - Park tmavé oblohy, www.darkskybeskydy.cz
(49.4926°N, 18.5016°E)
Time: 14:34:27
(UTC+01:00)

Vanguard 1 - Pass Details

Date: 17 November 2025
Orbit: 650 x 3821 km, 34.2° (Epoch: 07 December)

Event Time Altitude Azimuth Distance (km) Brightness Sun altitude
Rises 21:11:31 0° 276° (W) 7,858 15.2 -48.9°
Reaches altitude 10° 21:17:31 10° 269° (W) 6,920 14.7 -49.7°
Enters shadow 21:36:38 35° 215° (SW) 4,656 13.2 -52.0°
